カタログに戻る

STARLINK-32868

運用中通信VLEO
NORAD 62854·PAYLOAD·🇺🇸 United States

打ち上げ Feb 1, 2025 から Vandenberg Space Force Base

Loading…

次のパス (今後24時間)

TLE

最新Source: CelesTrak SupGP

元期: Sep 15, 2026, 02:51 UTC

1 62854C 25022A   26258.11923611  .00054773  00000+0  16179-2 0  2582
2 62854  53.1580 325.1293 0001255  91.6384  49.7260 15.34371164    12

AllMySatでSTARLINK-32868をリアルタイム追跡

Download on the App Store